Regional Weather Roundup
Issued by NWS Cleveland, OH

Home | Current Version | Previous Version | Graphics & Text | Print | Product List | Glossary On
Versions: 1 2 3 4 5 6 7 8 9 10 11 12 13 14 15 16 17 18 19 20 21 22 23 24 25 26 27 28 29 30 31 32 33 34 35 36 37 38 39 40 41 42 43 44 45 46 47 48 49 50
000
ASUS41 KCLE 081512
RWRCLE
OHIO REGIONAL WEATHER ROUNDUP
NATIONAL WEATHER SERVICE WILMINGTON, OH
1000 AM EST THU DEC 08 2016

NOTE: "FAIR" INDICATES FEW OR NO CLOUDS BELOW 12,000 FEET WITH NO
SIGNIFICANT WEATHER AND/OR OBSTRUCTIONS TO VISIBILITY.

OHZ001>008-015>018-024>027-034-035-043-044-081600-
   NORTHWEST OHIO

CITY           SKY/WX    TMP DP  RH WIND       PRES   REMARKS
DEFIANCE       FLURRIES  25  15  66 W12G24    30.17R WCI  14
FINDLAY        CLOUDY    26  15  63 W20G30    30.16R WCI  12
TOLEDO EXPRESS FLURRIES  24  18  77 SW20G29   30.13R WCI  10
TOLEDO EXEC    LGT SNOW  26  18  71 SW17G26   30.14R WCI  13
LIMA           CLOUDY    24  17  74 W22       30.17R WCI   9
$$

OHZ009>014-019>023-028>033-038-089-081600-
   NORTHEAST OHIO

CITY           SKY/WX    TMP DP  RH WIND       PRES   REMARKS
CLE-HOPKINS    LGT SNOW  27  17  66 SW21G26   30.14R WCI  13
CLE-LAKEFRONT  LGT SNOW  27  18  69 SW22      30.11R WCI  13
CUY CO. ARPT   LGT SNOW  27  19  74 W23       30.09R WCI  12
LORAIN-ELYRIA  LGT SNOW  24  17  74 W16       30.14R WCI  11
ASHTABULA      LGT SNOW  26  22  84 SW20G25   30.05R FOG     WCI  12
AKRON-CANTON   FLURRIES  25  15  66 NW18G24   30.11R WCI  11
WOOSTER        LGT SNOW  23  17  78 W12       30.13R WCI  12
MANSFIELD      FLURRIES  22  16  78 W14G22    30.12R WCI   9
YOUNGSTOWN     FLURRIES  26  17  68 W15G21    30.07R WCI  14
$$

OHZ042-051>053-060>062-070>072-077>081-081600-
  SOUTHWEST OHIO

CITY           SKY/WX    TMP DP  RH WIND       PRES   REMARKS
CINC-COVINGTON FAIR      26  13  57 W17G30    30.28R WCI  13
CINC-LUNKEN    FAIR      28  16  60 W18       30.31R WCI  15
HAMILTON       FAIR      27  16  63 W9G18     30.29R WCI  18
DAYTON         PTSUNNY   25  14  63 W21       30.22R WCI  11
WRIGHT-PAT AFB PTSUNNY   25  14  62 W16G22    30.22R WCI  13
DAYTON GENERAL CLOUDY    26  15  63 W15       30.22R WCI  14
WILMINGTON     CLOUDY    26  16  65 W18G29    30.21R WCI  13
$$

OHZ036-037-039>041-045>050-054>059-063>069-073>076-082>088-081600-
  CENTRAL AND SOUTHEAST OHIO

CITY           SKY/WX    TMP DP  RH WIND       PRES   REMARKS
COLUMBUS       CLOUDY    26  18  71 W17       30.20R WCI  13
OSU AIRPORT    CLOUDY    25  16  68 W17G30    30.19R WCI  12
BOLTON FIELD   CLOUDY    25  16  68 W18G24    30.21R WCI  11
RICKENBACK AFB   N/A     25  16  68 W21G26    30.22R WCI  11
NEWARK         CLOUDY    26  16  65 W17G28    30.18R WCI  13
MARION         CLOUDY    24  15  68 W15G22    30.17R WCI  11
LANCASTER      CLOUDY    26  16  65 W15G26    30.21R WCI  14
ZANESVILLE     CLOUDY    28  18  66 W18G24    30.17R WCI  15
NEW PHILLY     CLOUDY    27  18  69 W12G18    30.15R WCI  17
$$




USA.gov is the U.S. government's official web portal to all federal, state and local government web resources and services.